Tracking 28790 objects as of 19-Apr-2024
HD Live streaming from Space Station
objects crossing your sky now

TURKSAT 3U

Track TURKSAT 3U now!
10-day predictions
TURKSAT 3U is classified as:


NORAD ID: 39152
Int'l Code: 2013-018C
Perigee: 605.6 km
Apogee: 626.6 km
Inclination: 97.8 °
Period: 96.9 minutes
Semi major axis: 6987 km
RCS: 0.1149 m2 (medium)
Launch date: April 26, 2013
Source: Turkey (TURK)
Launch site: Jiuquan Satellite Launch Center, China (JSC)

Uplink (MHz): 145.940-145.990
Downlink (MHz): 435.200-435.250
Beacon (MHz): 437.225
Mode: SSB CW
Call sign:
Status: Inactive


TURKSAT-3USAT is a nano satellite built by Turksat AS R&D department and Istanbul Technical University (ITU).
Your satellite tracking list
Your tracking list is empty




NASA's NSSDC Master Catalog

Two Line Element Set (TLE):
1 39152U 13018C   24110.19162324  .00008999  00000-0  10212-2 0  9992
2 39152  97.8283 196.7925 0015035 190.2481 169.8430 14.86470528593448
Source of the keplerian elements: AFSPC